Voltar ao catálogo

COSMOS 2251 DEB

AtivoVLEO
NORAD 47116·DEBRIS·🇷🇺 Russia

Lançado Jun 16, 1993 de Plesetsk Cosmodrome

Loading…

Próximas Passagens (próximas 24 horas)

TLE

EnvelhecendoSource: Space-Track

Época: Sep 13, 2026, 19:54 UTC

1 47116U 93036BYJ 26256.82975979  .00029209  00000-0  16793-2 0  9997
2 47116  74.0210  36.0755 0017123  68.3185  82.0344 15.12236757636517

Acompanhe COSMOS 2251 DEB em tempo real com AllMySat

Download on the App Store